GW3896 Weather Reports


Display with metric or nautical units.
time (UTC)temp
F
wind
direction
speed
MPH
gust
MPH
rain 1hr
in
rain 24hr
in
rain mn
in
humidity
%
barometer
mb
20260508082938 37 289 0.0 0.0 0.00 0.00 0.00 99 1015.0
20260508082435 37 291 0.0 0.0 0.00 0.00 0.00 99 1014.8
20260508081933 37 288 0.0 0.0 0.00 0.00 0.00 99 1014.9
20260508081430 37 283 0.0 0.0 0.00 0.00 0.00 99 1014.9
20260508080926 37 305 0.0 0.0 0.00 0.00 0.00 99 1015.0
20260508080424 37 289 0.0 0.0 0.00 0.00 0.00 99 1014.9
20260508075921 37 287 0.0 0.0 0.00 0.00 0.00 99 1014.9
20260508075418 37 260 0.0 0.0 0.00 0.00 0.00 99 1015.0
20260508074916 38 258 0.0 0.0 0.00 0.00 0.00 99 1014.8
20260508074413 38 262 0.0 0.0 0.00 0.00 0.00 99 1014.8
20260508073909 38 259 0.0 0.0 0.00 0.00 0.00 99 1014.8
20260508073407 38 301 1.0 1.0 0.00 0.00 0.00 98 1014.5
20260508072904 38 231 0.0 0.0 0.00 0.00 0.00 98 1014.5
20260508072400 38 266 0.0 0.0 0.00 0.00 0.00 98 1014.7
20260508071857 38 278 0.0 0.0 0.00 0.00 0.00 98 1014.7
20260508071356 38 313 0.0 1.0 0.00 0.00 0.00 98 1014.8
20260508070853 38 304 0.0 1.0 0.00 0.00 0.00 98 1014.9
20260508070351 38 294 0.0 0.0 0.00 0.00 0.00 98 1014.8
20260508065848 39 295 0.0 0.0 0.00 0.00 0.00 97 1014.9
20260508065347 39 233 0.0 0.0 0.00 0.00 0.00 97 1014.8
20260508064844 39 273 0.0 0.0 0.00 0.00 0.00 97 1014.9
20260508064341 39 294 0.0 0.0 0.00 0.00 0.00 97 1014.7
20260508063839 39 264 0.0 0.0 0.00 0.00 0.00 97 1014.8
20260508063337 39 270 0.0 0.0 0.00 0.00 0.00 96 1014.8
20260508062833 39 265 0.0 0.0 0.00 0.00 0.00 96 1014.8
20260508062331 39 287 0.0 0.0 0.00 0.00 0.00 96 1015.0
20260508061828 39 269 0.0 0.0 0.00 0.00 0.00 96 1015.2
20260508061326 39 305 0.0 1.0 0.00 0.00 0.00 96 1014.9
20260508060822 39 291 0.0 0.0 0.00 0.00 0.00 95 1015.0
20260508060320 39 262 0.0 0.0 0.00 0.00 0.00 95 1015.2
20260508055814 39 268 0.0 0.0 0.00 0.00 0.00 95 1015.2
20260508055312 39 268 0.0 0.0 0.00 0.00 0.00 95 1015.0
20260508054808 39 292 0.0 0.0 0.00 0.00 0.00 95 1014.9
20260508054306 39 268 0.0 0.0 0.00 0.00 0.00 94 1015.3
20260508053802 40 268 0.0 0.0 0.00 0.00 0.00 94 1015.2
20260508053300 40 303 0.0 0.0 0.00 0.00 0.00 94 1015.4
20260508052757 40 249 0.0 0.0 0.00 0.00 0.00 93 1014.9
20260508052254 40 288 0.0 0.0 0.00 0.00 0.00 93 1015.0
20260508051750 40 316 1.0 1.0 0.00 0.00 0.00 93 1015.0
20260508051245 40 308 1.0 1.0 0.00 0.00 0.00 93 1015.2
20260508050743 40 315 1.0 1.0 0.00 0.00 0.00 92 1015.3
20260508050240 40 261 0.0 0.0 0.00 0.00 0.00 92 1015.3
20260508045735 41 249 0.0 0.0 0.00 0.00 0.00 92 1015.4
20260508045233 41 280 0.0 0.0 0.00 0.00 0.00 92 1015.3
20260508044731 41 261 0.0 0.0 0.00 0.00 0.00 91 1015.5
20260508044227 41 258 0.0 0.0 0.00 0.00 0.00 91 1015.2
20260508043723 41 255 0.0 0.0 0.00 0.00 0.00 90 1015.0
20260508043221 41 274 0.0 0.0 0.00 0.00 0.00 90 1015.3
20260508042717 41 328 1.0 1.0 0.00 0.00 0.00 90 1015.0
20260508042215 42 298 1.0 1.0 0.00 0.00 0.00 89 1015.2
20260508041711 41 265 0.0 0.0 0.00 0.00 0.00 89 1015.2
20260508041208 42 267 0.0 0.0 0.00 0.00 0.00 89 1015.2
20260508040704 42 264 0.0 0.0 0.00 0.00 0.00 89 1015.2
20260508040202 42 279 0.0 0.0 0.00 0.00 0.00 89 1015.2
20260508035659 42 262 0.0 0.0 0.00 0.00 0.00 88 1015.0
20260508035157 42 270 0.0 1.0 0.00 0.00 0.00 88 1015.0
20260508034653 42 270 0.0 0.0 0.00 0.00 0.00 87 1015.0
20260508034150 43 280 0.0 0.0 0.00 0.00 0.00 87 1014.9
20260508033647 43 265 0.0 0.0 0.00 0.00 0.00 86 1014.9
20260508033146 43 282 0.0 1.0 0.00 0.00 0.00 85 1014.7
20260508032642 43 268 0.0 0.0 0.00 0.00 0.00 85 1014.8
20260508032140 43 266 0.0 0.0 0.00 0.00 0.00 85 1015.0
20260508031636 43 285 0.0 1.0 0.00 0.00 0.00 85 1014.7
20260508031132 43 267 0.0 0.0 0.00 0.00 0.00 85 1015.0
20260508030629 44 264 0.0 0.0 0.00 0.00 0.00 85 1014.7
20260508030127 44 285 0.0 0.0 0.00 0.00 0.00 84 1014.9
20260508025623 44 331 1.0 1.0 0.00 0.00 0.00 83 1014.8
20260508025120 45 278 0.0 0.0 0.00 0.00 0.00 82 1014.9
20260508024616 45 287 0.0 1.0 0.00 0.00 0.00 81 1014.9
20260508024113 45 259 0.0 0.0 0.00 0.00 0.00 81 1014.8
20260508023609 45 271 0.0 0.0 0.00 0.00 0.00 81 1014.8
20260508023107 45 273 0.0 1.0 0.00 0.00 0.00 81 1014.8
20260508022602 45 244 0.0 0.0 0.00 0.00 0.00 80 1014.9
20260508022100 46 249 0.0 0.0 0.00 0.00 0.00 79 1014.7
20260508021555 46 353 1.0 1.0 0.00 0.00 0.00 78 1014.5
20260508021052 46 279 0.0 0.0 0.00 0.00 0.00 79 1014.6
20260508020549 46 301 0.0 1.0 0.00 0.00 0.00 79 1014.6
20260508020047 46 283 0.0 0.0 0.00 0.00 0.00 78 1014.4
20260508015544 47 277 0.0 0.0 0.00 0.00 0.00 77 1014.5
20260508015041 47 273 0.0 1.0 0.00 0.00 0.00 77 1014.3
20260508014537 47 305 0.0 1.0 0.00 0.00 0.00 77 1014.3
20260508014034 47 273 0.0 0.0 0.00 0.00 0.00 77 1014.2
20260508013530 48 280 0.0 0.0 0.00 0.00 0.00 75 1014.2
20260508013027 48 293 1.0 1.0 0.00 0.00 0.00 74 1014.0
20260508012524 49 270 0.0 0.0 0.00 0.00 0.00 74 1014.2
20260508012022 49 275 0.0 0.0 0.00 0.00 0.00 73 1014.0
20260508011520 49 303 1.0 1.0 0.00 0.00 0.00 72 1014.0
20260508011017 50 347 0.0 1.0 0.00 0.00 0.00 70 1013.9
20260508010514 50 353 1.0 1.0 0.00 0.00 0.00 68 1013.7
20260508010011 51 286 0.0 0.0 0.00 0.00 0.00 67 1013.9
20260508005508 52 324 1.0 1.0 0.00 0.00 0.00 65 1013.9
20260508005005 52 258 0.0 0.0 0.00 0.00 0.00 63 1014.0
20260508004500 53 321 1.0 1.0 0.00 0.00 0.00 59 1013.6
20260508003957 54 248 0.0 0.0 0.00 0.00 0.00 54 1013.5
20260508003454 55 247 0.0 0.0 0.00 0.00 0.00 53 1013.6
20260508002951 55 251 0.0 0.0 0.00 0.00 0.00 52 1013.5
20260508002447 56 248 0.0 0.0 0.00 0.00 0.00 52 1013.5
20260508001943 56 248 0.0 0.0 0.00 0.00 0.00 50 1013.5
20260508001440 57 265 0.0 1.0 0.00 0.00 0.00 50 1013.4
20260508000936 57 273 2.0 3.0 0.00 0.00 0.00 47 1013.4
20260508000434 57 337 3.0 3.0 0.00 0.00 0.00 47 1013.3
20260507235930 57 257 1.0 1.0 0.00 0.00 0.00 47 1013.2
20260507235426 58 262 1.0 2.0 0.00 0.00 0.00 47 1013.2
20260507234924 58 330 1.0 2.0 0.00 0.00 0.00 47 1013.1
20260507234420 58 307 2.0 2.0 0.00 0.00 0.00 46 1012.9
20260507233917 59 318 3.0 5.0 0.00 0.00 0.00 46 1012.9
20260507233414 59 284 3.0 3.0 0.00 0.00 0.00 45 1012.8
20260507232913 60 236 3.0 3.0 0.00 0.00 0.00 45 1012.9
20260507232408 60 100 4.0 6.0 0.00 0.00 0.00 44 1013.1
20260507231906 60 315 3.0 5.0 0.00 0.00 0.00 43 1013.0
20260507231402 60 237 5.0 7.0 0.00 0.00 0.00 43 1012.6
20260507230859 61 256 5.0 6.0 0.00 0.00 0.00 42 1012.6
20260507230356 62 273 1.0 2.0 0.00 0.00 0.00 42 1012.8
20260507225856 62 239 1.0 2.0 0.00 0.00 0.00 41 1012.8
20260507225352 62 329 4.0 5.0 0.00 0.00 0.00 39 1012.7
20260507224848 62 276 7.0 8.0 0.00 0.00 0.00 39 1012.7
20260507224345 62 290 6.0 8.0 0.00 0.00 0.00 38 1012.5
20260507223841 62 261 3.0 5.0 0.00 0.00 0.00 36 1012.7
20260507223338 63 267 7.0 9.0 0.00 0.00 0.00 36 1012.4
20260507222835 63 316 4.0 6.0 0.00 0.00 0.00 35 1012.3
20260507222331 63 253 2.0 5.0 0.00 0.00 0.00 37 1012.4
20260507221828 63 264 3.0 3.0 0.00 0.00 0.00 38 1012.1
20260507221325 63 215 3.0 3.0 0.00 0.00 0.00 36 1012.2
20260507220821 63 315 2.0 3.0 0.00 0.00 0.00 36 1012.3
20260507220320 63 276 5.0 7.0 0.00 0.00 0.00 38 1012.3
20260507215815 63 248 1.0 1.0 0.00 0.00 0.00 37 1012.2
20260507215313 62 282 7.0 8.0 0.00 0.00 0.00 38 1012.2
20260507214810 63 299 3.0 3.0 0.00 0.00 0.00 38 1012.1
20260507214307 63 271 8.0 14.0 0.00 0.00 0.00 37 1012.0
20260507213802 64 200 6.0 7.0 0.00 0.00 0.00 37 1012.0
20260507213259 64 319 3.0 5.0 0.00 0.00 0.00 38 1012.0
20260507212756 64 295 7.0 10.0 0.00 0.00 0.00 38 1011.7
20260507212252 64 264 8.0 9.0 0.00 0.00 0.00 37 1011.9
20260507211748 64 270 3.0 3.0 0.00 0.00 0.00 37 1011.8
20260507211245 64 242 4.0 6.0 0.00 0.00 0.00 35 1011.7
20260507210742 64 332 3.0 5.0 0.00 0.00 0.00 36 1011.8
20260507210239 64 273 8.0 11.0 0.00 0.00 0.00 36 1011.6
20260507205735 64 289 1.0 2.0 0.00 0.00 0.00 37 1011.6
20260507205232 63 258 4.0 5.0 0.00 0.00 0.00 36 1011.4
20260507204728 64 276 10.0 11.0 0.00 0.00 0.00 36 1011.5
20260507204227 64 230 5.0 6.0 0.00 0.00 0.00 36 1011.5
20260507203719 64 254 11.0 16.0 0.00 0.00 0.00 33 1011.5
20260507203216 64 339 10.0 13.0 0.00 0.00 0.00 35 1011.3
20260507202712 63 228 6.0 7.0 0.00 0.00 0.00 37 1011.5
20260507202208 64 322 3.0 5.0 0.00 0.00 0.00 40 1011.3
20260507201703 63 317 3.0 3.0 0.00 0.00 0.00 40 1011.4
20260507201200 63 331 6.0 8.0 0.00 0.00 0.00 41 1011.6
20260507200656 64 248 6.0 8.0 0.00 0.00 0.00 39 1011.7
20260507200153 64 260 2.0 2.0 0.00 0.00 0.00 39 1011.6
20260507195649 64 289 7.0 8.0 0.00 0.00 0.00 39 1011.6
20260507195146 63 285 4.0 5.0 0.00 0.00 0.00 39 1011.6
20260507194643 63 252 6.0 8.0 0.00 0.00 0.00 38 1011.7
20260507194139 64 251 11.0 13.0 0.00 0.00 0.00 39 1011.8
20260507193636 64 288 8.0 10.0 0.00 0.00 0.00 39 1011.9
20260507193133 63 249 3.0 3.0 0.00 0.00 0.00 41 1011.9
20260507192629 63 249 7.0 8.0 0.00 0.00 0.00 40 1011.9
20260507192126 64 194 1.0 1.0 0.00 0.00 0.00 40 1011.8
20260507191621 63 230 2.0 2.0 0.00 0.00 0.00 40 1012.0
20260507191119 64 277 5.0 8.0 0.00 0.00 0.00 41 1012.1
20260507190616 64 247 2.0 2.0 0.00 0.00 0.00 44 1012.1
20260507190115 63 255 6.0 8.0 0.00 0.00 0.00 42 1012.2
20260507185613 62 266 4.0 6.0 0.00 0.00 0.00 44 1012.6
20260507185109 62 242 2.0 5.0 0.00 0.00 0.00 45 1012.4
20260507184607 61 268 8.0 10.0 0.00 0.00 0.00 44 1012.2
20260507184105 64 273 7.0 11.0 0.00 0.00 0.00 43 1012.3
20260507183601 64 268 7.0 9.0 0.00 0.00 0.00 42 1012.1
20260507183058 64 253 9.0 13.0 0.00 0.00 0.00 41 1012.3
20260507182554 63 239 8.0 9.0 0.00 0.00 0.00 40 1012.1
20260507182050 63 233 4.0 8.0 0.00 0.00 0.00 41 1012.4
20260507181547 64 312 4.0 5.0 0.00 0.00 0.00 42 1012.2
20260507181043 63 307 1.0 2.0 0.00 0.00 0.00 44 1012.3
20260507180539 62 257 4.0 6.0 0.00 0.00 0.00 45 1012.2
20260507180037 62 251 3.0 5.0 0.00 0.00 0.00 43 1012.2
20260507175532 62 240 4.0 6.0 0.00 0.00 0.00 45 1012.1
20260507175031 62 274 8.0 9.0 0.00 0.00 0.00 43 1012.5
20260507174527 62 277 5.0 7.0 0.00 0.00 0.00 44 1012.6
20260507174025 61 236 5.0 7.0 0.00 0.00 0.00 45 1012.3
20260507173522 62 274 9.0 13.0 0.00 0.00 0.00 43 1012.6
20260507173019 61 241 4.0 5.0 0.00 0.00 0.00 45 1012.7
20260507172514 62 289 5.0 8.0 0.00 0.00 0.00 45 1012.7
20260507172011 62 273 9.0 10.0 0.00 0.00 0.00 45 1012.8
20260507171507 61 249 8.0 9.0 0.00 0.00 0.00 46 1012.7
20260507171005 60 244 6.0 8.0 0.00 0.00 0.00 47 1012.7
20260507170501 61 268 9.0 10.0 0.00 0.00 0.00 44 1012.9
20260507165957 60 272 4.0 6.0 0.00 0.00 0.00 47 1013.1
20260507165454 60 305 8.0 10.0 0.00 0.00 0.00 45 1013.2
20260507164950 61 258 6.0 8.0 0.00 0.00 0.00 46 1013.0
20260507164447 60 240 5.0 8.0 0.00 0.00 0.00 48 1013.1
20260507163944 60 236 8.0 8.0 0.00 0.00 0.00 47 1013.1
20260507163441 61 259 6.0 8.0 0.00 0.00 0.00 47 1013.2
20260507162938 60 275 2.0 3.0 0.00 0.00 0.00 50 1013.5
20260507162433 59 246 5.0 7.0 0.00 0.00 0.00 52 1013.2
20260507161930 60 252 6.0 7.0 0.00 0.00 0.00 50 1013.1
20260507161426 60 235 6.0 7.0 0.00 0.00 0.00 51 1013.4
20260507160923 61 247 3.0 3.0 0.00 0.00 0.00 47 1013.5
20260507160419 60 237 5.0 7.0 0.00 0.00 0.00 48 1013.5
20260507155915 60 298 3.0 3.0 0.00 0.00 0.00 50 1013.3
20260507155411 59 235 1.0 1.0 0.00 0.00 0.00 51 1013.4
20260507154908 59 254 6.0 7.0 0.00 0.00 0.00 52 1013.6
20260507154405 59 273 6.0 7.0 0.00 0.00 0.00 50 1013.5
20260507153903 59 248 7.0 9.0 0.00 0.00 0.00 51 1013.4
20260507153359 59 265 7.0 9.0 0.00 0.00 0.00 50 1013.4
20260507152855 59 244 3.0 3.0 0.00 0.00 0.00 51 1013.2
20260507152352 58 349 4.0 5.0 0.00 0.00 0.00 53 1013.5
20260507151848 57 252 2.0 3.0 0.00 0.00 0.00 52 1013.5
20260507151344 58 233 3.0 3.0 0.00 0.00 0.00 52 1013.4
20260507150841 58 248 9.0 10.0 0.00 0.00 0.00 53 1013.6
20260507150338 57 259 9.0 10.0 0.00 0.00 0.00 54 1013.6
20260507145834 57 248 5.0 7.0 0.00 0.00 0.00 55 1013.6
20260507145325 57 305 3.0 3.0 0.00 0.00 0.00 59 1013.7
20260507144822 58 227 1.0 1.0 0.00 0.00 0.00 57 1013.8
20260507144319 57 252 3.0 3.0 0.00 0.00 0.00 60 1013.8
20260507143815 56 253 3.0 6.0 0.00 0.00 0.00 62 1013.9
20260507143313 58 255 0.0 1.0 0.00 0.00 0.00 61 1013.9
20260507142809 57 260 4.0 5.0 0.00 0.00 0.00 59 1014.0
20260507142307 57 251 2.0 2.0 0.00 0.00 0.00 63 1014.1
20260507141802 56 266 3.0 3.0 0.00 0.00 0.00 66 1014.1
20260507141259 55 239 1.0 2.0 0.00 0.00 0.00 66 1013.9
20260507140755 56 270 3.0 5.0 0.00 0.00 0.00 65 1014.2
20260507140253 56 229 3.0 5.0 0.00 0.00 0.00 65 1014.2
20260507135750 56 236 5.0 7.0 0.00 0.00 0.00 66 1014.2
20260507135247 55 266 3.0 5.0 0.00 0.00 0.00 67 1014.3
20260507134743 54 239 3.0 3.0 0.00 0.00 0.00 67 1014.4
20260507134240 54 250 2.0 3.0 0.00 0.00 0.00 68 1014.4
20260507133735 54 220 1.0 1.0 0.00 0.00 0.00 67 1014.4
20260507133232 54 273 6.0 7.0 0.00 0.00 0.00 67 1014.5
20260507132730 54 297 1.0 2.0 0.00 0.00 0.00 69 1014.7
20260507132227 53 261 3.0 3.0 0.00 0.00 0.00 71 1014.5
20260507131723 52 280 3.0 5.0 0.00 0.00 0.00 74 1014.4
20260507131221 53 231 2.0 3.0 0.00 0.00 0.00 75 1014.7
20260507130717 52 233 2.0 2.0 0.00 0.00 0.00 76 1014.7
20260507130215 51 255 2.0 3.0 0.00 0.00 0.00 78 1014.7
20260507125713 51 250 1.0 1.0 0.00 0.00 0.00 79 1014.6
20260507125211 51 265 2.0 2.0 0.00 0.00 0.00 80 1014.7
20260507124707 50 251 3.0 3.0 0.00 0.00 0.00 78 1014.7
20260507124204 50 251 2.0 2.0 0.00 0.00 0.00 79 1015.0
20260507123703 50 249 3.0 3.0 0.00 0.00 0.00 81 1014.5
20260507123200 49 261 2.0 2.0 0.00 0.00 0.00 83 1014.6
20260507122655 49 238 3.0 3.0 0.00 0.00 0.00 85 1014.9
20260507122151 50 242 0.0 1.0 0.00 0.00 0.00 87 1014.7
20260507121647 49 240 0.0 0.0 0.00 0.00 0.00 89 1014.6
20260507121143 50 258 0.0 1.0 0.00 0.00 0.00 88 1014.6
20260507120640 51 228 0.0 0.0 0.00 0.00 0.00 87 1014.5
20260507120137 50 220 0.0 0.0 0.00 0.00 0.00 90 1014.4
20260507115633 49 219 0.0 0.0 0.00 0.00 0.00 92 1014.5
20260507115129 47 234 0.0 0.0 0.00 0.00 0.00 97 1014.6
20260507114624 46 233 0.0 0.0 0.00 0.00 0.00 99 1014.3
20260507114122 44 252 0.0 0.0 0.00 0.00 0.00 99 1014.8
20260507113620 43 257 0.0 0.0 0.00 0.00 0.00 99 1014.5
20260507113116 43 265 0.0 0.0 0.00 0.00 0.00 99 1014.5
20260507112614 42 292 0.0 0.0 0.00 0.00 0.00 99 1014.6
20260507112110 42 297 0.0 0.0 0.00 0.00 0.00 99 1014.4
20260507111608 42 325 0.0 0.0 0.00 0.00 0.00 99 1014.6
20260507111104 41 304 0.0 0.0 0.00 0.00 0.00 99 1014.4
20260507110601 41 291 0.0 0.0 0.00 0.00 0.00 99 1014.2
20260507110057 41 266 0.0 0.0 0.00 0.00 0.00 99 1014.3
20260507105553 41 268 0.0 0.0 0.00 0.00 0.00 99 1014.1
20260507105049 40 279 0.0 0.0 0.00 0.00 0.00 99 1014.2
20260507104547 40 280 0.0 0.0 0.00 0.00 0.00 99 1014.0
20260507104043 40 277 0.0 0.0 0.00 0.00 0.00 99 1013.9
20260507103539 40 272 0.0 0.0 0.00 0.00 0.00 99 1013.8
20260507103036 40 263 0.0 0.0 0.00 0.00 0.00 99 1014.0
20260507102533 40 267 0.0 0.0 0.00 0.00 0.00 99 1013.9
20260507102030 41 7 0.0 0.0 0.00 0.00 0.00 99 1013.8
20260507101525 41 322 0.0 0.0 0.00 0.00 0.00 99 1013.6
20260507101021 40 252 0.0 0.0 0.00 0.00 0.00 99 1013.8
20260507100519 40 248 0.0 0.0 0.00 0.00 0.00 99 1013.9
20260507100017 40 261 0.0 0.0 0.00 0.00 0.00 99 1013.7
20260507095514 41 270 0.0 0.0 0.00 0.00 0.00 99 1013.6
20260507095011 41 277 0.0 0.0 0.00 0.00 0.00 99 1013.6
20260507094507 41 284 0.0 0.0 0.00 0.00 0.00 99 1013.8
20260507094004 41 282 0.0 0.0 0.00 0.00 0.00 99 1013.5
20260507093501 41 271 0.0 0.0 0.00 0.00 0.00 98 1013.8
20260507093000 41 275 0.0 0.0 0.00 0.00 0.00 98 1013.8
20260507092456 42 277 0.0 0.0 0.00 0.00 0.00 98 1013.6
20260507091953 42 285 0.0 0.0 0.00 0.00 0.00 98 1013.6
20260507091449 42 272 0.0 0.0 0.00 0.00 0.00 98 1013.6
20260507090945 42 272 0.0 0.0 0.00 0.00 0.00 98 1013.9
20260507090441 42 252 0.0 0.0 0.00 0.00 0.00 98 1013.9
20260507085938 42 256 0.0 0.0 0.00 0.00 0.00 98 1013.8
20260507085435 42 272 0.0 0.0 0.00 0.00 0.00 97 1013.7
20260507084932 43 305 0.0 0.0 0.00 0.00 0.00 97 1013.6
20260507084429 43 295 0.0 0.0 0.00 0.00 0.00 97 1013.6
20260507083926 43 307 1.0 1.0 0.00 0.00 0.00 97 1013.7
20260507083423 43 266 0.0 0.0 0.00 0.00 0.00 97 1013.6